<?xml version="1.0" encoding="UTF-8" standalone="no" ?>
<gpx xmlns="http://www.topografix.com/GPX/1/1" xmlns:xsi="http://www.w3.org/2001/XMLSchema-instance" xsi:schemaLocation="http://www.topografix.com/GPX/1/1 http://www.topografix.com/GPX/1/1/gpx.xsd" version="1.1" creator="VisuGPX - https://www.visugpx.com">
  <metadata>
    <name>2020-09-22-CGP-xYYY-01-</name>
    <desc><![CDATA[verlin]]></desc>
  </metadata>
  <trk>
    <name><![CDATA[2020-09-22-CGP-xYYY-01-]]></name>
    <trkseg>
      <trkpt lat="48.01691" lon="3.233">
        <ele>114</ele>
        <time>2020-09-22T15:26:30Z</time>
      </trkpt>
      <trkpt lat="48.01784" lon="3.23201">
        <ele>114.4</ele>
        <time>2020-09-22T15:26:30Z</time>
      </trkpt>
      <trkpt lat="48.01817" lon="3.23232">
        <ele>116.4</ele>
        <time>2020-09-22T15:26:30Z</time>
      </trkpt>
      <trkpt lat="48.01845" lon="3.23282">
        <ele>118.2</ele>
        <time>2020-09-22T15:26:30Z</time>
      </trkpt>
      <trkpt lat="48.02008" lon="3.23277">
        <ele>146.9</ele>
        <time>2020-09-22T15:26:30Z</time>
      </trkpt>
      <trkpt lat="48.02044" lon="3.23232">
        <ele>152.8</ele>
        <time>2020-09-22T15:26:30Z</time>
      </trkpt>
      <trkpt lat="48.02083" lon="3.23083">
        <ele>163</ele>
        <time>2020-09-22T15:26:30Z</time>
      </trkpt>
      <trkpt lat="48.02086" lon="3.22578">
        <ele>170.2</ele>
        <time>2020-09-22T15:26:30Z</time>
      </trkpt>
      <trkpt lat="48.02436" lon="3.22479">
        <ele>174</ele>
        <time>2020-09-22T15:26:30Z</time>
      </trkpt>
      <trkpt lat="48.02424" lon="3.22402">
        <ele>175</ele>
        <time>2020-09-22T15:26:30Z</time>
      </trkpt>
      <trkpt lat="48.02457" lon="3.22402">
        <ele>175</ele>
        <time>2020-09-22T15:26:30Z</time>
      </trkpt>
      <trkpt lat="48.02502" lon="3.22438">
        <ele>174.9</ele>
        <time>2020-09-22T15:26:30Z</time>
      </trkpt>
      <trkpt lat="48.0265" lon="3.22443">
        <ele>171</ele>
        <time>2020-09-22T15:26:30Z</time>
      </trkpt>
      <trkpt lat="48.02792" lon="3.2247">
        <ele>167.5</ele>
        <time>2020-09-22T15:26:30Z</time>
      </trkpt>
      <trkpt lat="48.02913" lon="3.22483">
        <ele>162.7</ele>
        <time>2020-09-22T15:26:30Z</time>
      </trkpt>
      <trkpt lat="48.03048" lon="3.2247">
        <ele>162.4</ele>
        <time>2020-09-22T15:26:30Z</time>
      </trkpt>
      <trkpt lat="48.03169" lon="3.22443">
        <ele>152.8</ele>
        <time>2020-09-22T15:26:30Z</time>
      </trkpt>
      <trkpt lat="48.03202" lon="3.22551">
        <ele>144.7</ele>
        <time>2020-09-22T15:26:30Z</time>
      </trkpt>
      <trkpt lat="48.03181" lon="3.22641">
        <ele>143.6</ele>
        <time>2020-09-22T15:26:30Z</time>
      </trkpt>
      <trkpt lat="48.03124" lon="3.22718">
        <ele>142.1</ele>
        <time>2020-09-22T15:26:30Z</time>
      </trkpt>
      <trkpt lat="48.03103" lon="3.22853">
        <ele>140.2</ele>
        <time>2020-09-22T15:26:30Z</time>
      </trkpt>
      <trkpt lat="48.03139" lon="3.22961">
        <ele>142</ele>
        <time>2020-09-22T15:26:30Z</time>
      </trkpt>
      <trkpt lat="48.03139" lon="3.22961">
        <ele>142</ele>
        <time>2020-09-22T15:26:30Z</time>
      </trkpt>
      <trkpt lat="48.031" lon="3.23173">
        <ele>134.8</ele>
        <time>2020-09-22T15:26:30Z</time>
      </trkpt>
      <trkpt lat="48.03211" lon="3.23214">
        <ele>143.3</ele>
        <time>2020-09-22T15:26:30Z</time>
      </trkpt>
      <trkpt lat="48.03335" lon="3.23286">
        <ele>150.1</ele>
        <time>2020-09-22T15:26:30Z</time>
      </trkpt>
      <trkpt lat="48.03429" lon="3.23372">
        <ele>154.6</ele>
        <time>2020-09-22T15:26:30Z</time>
      </trkpt>
      <trkpt lat="48.03501" lon="3.23417">
        <ele>157.1</ele>
        <time>2020-09-22T15:26:30Z</time>
      </trkpt>
      <trkpt lat="48.0357" lon="3.23575">
        <ele>164.5</ele>
        <time>2020-09-22T15:26:30Z</time>
      </trkpt>
      <trkpt lat="48.03483" lon="3.23548">
        <ele>170.6</ele>
        <time>2020-09-22T15:26:30Z</time>
      </trkpt>
      <trkpt lat="48.03429" lon="3.23607">
        <ele>175.8</ele>
        <time>2020-09-22T15:26:30Z</time>
      </trkpt>
      <trkpt lat="48.0348" lon="3.2376">
        <ele>178.8</ele>
        <time>2020-09-22T15:26:30Z</time>
      </trkpt>
      <trkpt lat="48.03525" lon="3.24315">
        <ele>183.4</ele>
        <time>2020-09-22T15:26:30Z</time>
      </trkpt>
      <trkpt lat="48.03549" lon="3.24685">
        <ele>185.3</ele>
        <time>2020-09-22T15:26:30Z</time>
      </trkpt>
      <trkpt lat="48.03537" lon="3.2482">
        <ele>183.2</ele>
        <time>2020-09-22T15:26:30Z</time>
      </trkpt>
      <trkpt lat="48.03441" lon="3.24811">
        <ele>181.8</ele>
        <time>2020-09-22T15:26:30Z</time>
      </trkpt>
      <trkpt lat="48.0341" lon="3.25037">
        <ele>175.1</ele>
        <time>2020-09-22T15:26:30Z</time>
      </trkpt>
      <trkpt lat="48.03459" lon="3.25064">
        <ele>174.6</ele>
        <time>2020-09-22T15:26:30Z</time>
      </trkpt>
      <trkpt lat="48.03507" lon="3.25208">
        <ele>171.2</ele>
        <time>2020-09-22T15:26:30Z</time>
      </trkpt>
      <trkpt lat="48.03507" lon="3.25208">
        <ele>171.2</ele>
        <time>2020-09-22T15:26:30Z</time>
      </trkpt>
      <trkpt lat="48.0345" lon="3.25249">
        <ele>173.9</ele>
        <time>2020-09-22T15:26:30Z</time>
      </trkpt>
      <trkpt lat="48.03474" lon="3.25285">
        <ele>176.5</ele>
        <time>2020-09-22T15:26:30Z</time>
      </trkpt>
      <trkpt lat="48.03471" lon="3.25402">
        <ele>182.5</ele>
        <time>2020-09-22T15:26:30Z</time>
      </trkpt>
      <trkpt lat="48.03435" lon="3.25628">
        <ele>187.6</ele>
        <time>2020-09-22T15:26:30Z</time>
      </trkpt>
      <trkpt lat="48.03389" lon="3.25767">
        <ele>190</ele>
        <time>2020-09-22T15:26:30Z</time>
      </trkpt>
      <trkpt lat="48.03383" lon="3.25889">
        <ele>191.8</ele>
        <time>2020-09-22T15:26:30Z</time>
      </trkpt>
      <trkpt lat="48.03426" lon="3.26169">
        <ele>191.2</ele>
        <time>2020-09-22T15:26:30Z</time>
      </trkpt>
      <trkpt lat="48.03432" lon="3.26399">
        <ele>189.8</ele>
        <time>2020-09-22T15:26:30Z</time>
      </trkpt>
      <trkpt lat="48.03459" lon="3.26751">
        <ele>188</ele>
        <time>2020-09-22T15:26:30Z</time>
      </trkpt>
      <trkpt lat="48.03477" lon="3.27022">
        <ele>185.2</ele>
        <time>2020-09-22T15:26:30Z</time>
      </trkpt>
      <trkpt lat="48.03477" lon="3.27206">
        <ele>181.5</ele>
        <time>2020-09-22T15:26:30Z</time>
      </trkpt>
      <trkpt lat="48.0351" lon="3.27441">
        <ele>176.1</ele>
        <time>2020-09-22T15:26:30Z</time>
      </trkpt>
      <trkpt lat="48.03519" lon="3.27495">
        <ele>175.2</ele>
        <time>2020-09-22T15:26:30Z</time>
      </trkpt>
      <trkpt lat="48.03389" lon="3.27432">
        <ele>174.5</ele>
        <time>2020-09-22T15:26:30Z</time>
      </trkpt>
      <trkpt lat="48.03266" lon="3.27419">
        <ele>169.5</ele>
        <time>2020-09-22T15:26:30Z</time>
      </trkpt>
      <trkpt lat="48.03236" lon="3.27432">
        <ele>168.7</ele>
        <time>2020-09-22T15:26:30Z</time>
      </trkpt>
      <trkpt lat="48.03272" lon="3.27576">
        <ele>162.9</ele>
        <time>2020-09-22T15:26:30Z</time>
      </trkpt>
      <trkpt lat="48.03266" lon="3.27721">
        <ele>154.7</ele>
        <time>2020-09-22T15:26:30Z</time>
      </trkpt>
      <trkpt lat="48.03181" lon="3.27982">
        <ele>135.5</ele>
        <time>2020-09-22T15:26:30Z</time>
      </trkpt>
      <trkpt lat="48.03103" lon="3.28059">
        <ele>126.3</ele>
        <time>2020-09-22T15:26:30Z</time>
      </trkpt>
      <trkpt lat="48.03039" lon="3.28199">
        <ele>113.5</ele>
        <time>2020-09-22T15:26:30Z</time>
      </trkpt>
      <trkpt lat="48.03021" lon="3.28249">
        <ele>108.9</ele>
        <time>2020-09-22T15:26:30Z</time>
      </trkpt>
      <trkpt lat="48.02985" lon="3.28343">
        <ele>105.4</ele>
        <time>2020-09-22T15:26:30Z</time>
      </trkpt>
      <trkpt lat="48.02928" lon="3.28307">
        <ele>96.6</ele>
        <time>2020-09-22T15:26:30Z</time>
      </trkpt>
      <trkpt lat="48.02883" lon="3.28348">
        <ele>92.1</ele>
        <time>2020-09-22T15:26:30Z</time>
      </trkpt>
      <trkpt lat="48.02883" lon="3.28348">
        <ele>92.1</ele>
        <time>2020-09-22T15:26:30Z</time>
      </trkpt>
      <trkpt lat="48.0275" lon="3.28524">
        <ele>88</ele>
        <time>2020-09-22T15:26:30Z</time>
      </trkpt>
      <trkpt lat="48.02714" lon="3.28542">
        <ele>93.6</ele>
        <time>2020-09-22T15:26:30Z</time>
      </trkpt>
      <trkpt lat="48.0268" lon="3.2842">
        <ele>98.6</ele>
        <time>2020-09-22T15:26:30Z</time>
      </trkpt>
      <trkpt lat="48.02593" lon="3.28312">
        <ele>113.1</ele>
        <time>2020-09-22T15:26:30Z</time>
      </trkpt>
      <trkpt lat="48.02249" lon="3.28082">
        <ele>170</ele>
        <time>2020-09-22T15:26:30Z</time>
      </trkpt>
      <trkpt lat="48.02198" lon="3.27991">
        <ele>172.7</ele>
        <time>2020-09-22T15:26:30Z</time>
      </trkpt>
      <trkpt lat="48.02155" lon="3.27861">
        <ele>174.4</ele>
        <time>2020-09-22T15:26:30Z</time>
      </trkpt>
      <trkpt lat="48.02098" lon="3.27788">
        <ele>176</ele>
        <time>2020-09-22T15:26:30Z</time>
      </trkpt>
      <trkpt lat="48.02011" lon="3.27576">
        <ele>178.6</ele>
        <time>2020-09-22T15:26:30Z</time>
      </trkpt>
      <trkpt lat="48.01938" lon="3.27491">
        <ele>178.7</ele>
        <time>2020-09-22T15:26:30Z</time>
      </trkpt>
      <trkpt lat="48.01878" lon="3.27382">
        <ele>178.2</ele>
        <time>2020-09-22T15:26:30Z</time>
      </trkpt>
      <trkpt lat="48.01712" lon="3.27031">
        <ele>176.8</ele>
        <time>2020-09-22T15:26:30Z</time>
      </trkpt>
      <trkpt lat="48.01721" lon="3.26715">
        <ele>185.3</ele>
        <time>2020-09-22T15:26:30Z</time>
      </trkpt>
      <trkpt lat="48.01676" lon="3.26196">
        <ele>187.7</ele>
        <time>2020-09-22T15:26:30Z</time>
      </trkpt>
      <trkpt lat="48.01655" lon="3.2607">
        <ele>187</ele>
        <time>2020-09-22T15:26:30Z</time>
      </trkpt>
      <trkpt lat="48.01627" lon="3.25957">
        <ele>185.7</ele>
        <time>2020-09-22T15:26:30Z</time>
      </trkpt>
      <trkpt lat="48.0147" lon="3.25731">
        <ele>186.4</ele>
        <time>2020-09-22T15:26:30Z</time>
      </trkpt>
      <trkpt lat="48.01347" lon="3.25397">
        <ele>191.1</ele>
        <time>2020-09-22T15:26:30Z</time>
      </trkpt>
      <trkpt lat="48.01304" lon="3.25204">
        <ele>191</ele>
        <time>2020-09-22T15:26:30Z</time>
      </trkpt>
      <trkpt lat="48.01111" lon="3.24874">
        <ele>184</ele>
        <time>2020-09-22T15:26:30Z</time>
      </trkpt>
      <trkpt lat="48.01256" lon="3.24667">
        <ele>187</ele>
        <time>2020-09-22T15:26:30Z</time>
      </trkpt>
      <trkpt lat="48.01362" lon="3.24446">
        <ele>182</ele>
        <time>2020-09-22T15:26:30Z</time>
      </trkpt>
      <trkpt lat="48.01413" lon="3.24364">
        <ele>178.4</ele>
        <time>2020-09-22T15:26:30Z</time>
      </trkpt>
      <trkpt lat="48.0141" lon="3.2427">
        <ele>176.2</ele>
        <time>2020-09-22T15:26:30Z</time>
      </trkpt>
      <trkpt lat="48.01431" lon="3.24193">
        <ele>172.4</ele>
        <time>2020-09-22T15:26:30Z</time>
      </trkpt>
      <trkpt lat="48.01483" lon="3.24175">
        <ele>164.9</ele>
        <time>2020-09-22T15:26:30Z</time>
      </trkpt>
      <trkpt lat="48.01516" lon="3.24044">
        <ele>155.8</ele>
        <time>2020-09-22T15:26:30Z</time>
      </trkpt>
      <trkpt lat="48.01543" lon="3.23949">
        <ele>148</ele>
        <time>2020-09-22T15:26:30Z</time>
      </trkpt>
      <trkpt lat="48.0157" lon="3.2381">
        <ele>138.6</ele>
        <time>2020-09-22T15:26:30Z</time>
      </trkpt>
      <trkpt lat="48.0157" lon="3.2367">
        <ele>127.3</ele>
        <time>2020-09-22T15:26:30Z</time>
      </trkpt>
      <trkpt lat="48.01546" lon="3.23561">
        <ele>117.8</ele>
        <time>2020-09-22T15:26:30Z</time>
      </trkpt>
      <trkpt lat="48.01612" lon="3.23444">
        <ele>116</ele>
        <time>2020-09-22T15:26:30Z</time>
      </trkpt>
      <trkpt lat="48.01688" lon="3.23458">
        <ele>113.2</ele>
        <time>2020-09-22T15:26:30Z</time>
      </trkpt>
      <trkpt lat="48.01691" lon="3.233">
        <ele>114</ele>
        <time>2020-09-22T15:26:30Z</time>
      </trkpt>
    </trkseg>
  </trk>
</gpx>